Tracking 31027 objects as of 19-Jul-2025
HD Live streaming from Space Station
objects crossing your sky now

STARLINK-3083

Track STARLINK-3083 now!
10-day predictions
STARLINK-3083 is classified as:


NORAD ID: 49158
Int'l Code: 2021-082AE
Perigee: 456.7 km
Apogee: 465.3 km
Inclination: 70.0 °
Period: 93.7 minutes
Semi major axis: 6831 km
RCS: Unknown
Launch date: September 14, 2021
Source: United States (US)
Launch site: AIR FORCE WESTERN TEST RANGE (AFWTR)
Your satellite tracking list
HAWK-4A
Track 1 satellite(s)




NASA's NSSDC Master Catalog

Two Line Element Set (TLE):
1 49158U 21082AE  25199.42935159  .00026292  00000-0  71615-3 0  9998
2 49158  69.9810  93.6840 0006313 186.2701 173.8400 15.37391462213752
Source of the keplerian elements: AFSPC